Time,TemperatureF,DewpointF,PressureIn,WindDirection,WindDirectionDegrees,WindSpeedMPH,WindSpeedGustMPH,Humidity,HourlyPrecipIn,Conditions,Clouds,dailyrainin,SoftwareType,DateUTC
2013-04-18 00:01:00,43.8,41.3,29.95,East,84,6.0,10.0,91,0.00,-RA,OVC,0.00,WeatherDisplay:10.37,2013-04-18 04:01:00,
2013-04-18 00:06:00,43.8,41.3,29.94,East,87,2.0,6.0,91,0.00,-RA,OVC,0.00,WeatherDisplay:10.37,2013-04-18 04:06:00,
2013-04-18 00:11:00,43.8,41.3,29.93,ESE,103,3.0,8.0,91,0.01,-RA,OVC,0.01,WeatherDisplay:10.37,2013-04-18 04:11:00,
2013-04-18 00:16:00,43.8,41.3,29.92,East,98,2.0,7.0,91,0.00,-RA,OVC,0.01,WeatherDisplay:10.37,2013-04-18 04:16:00,
2013-04-18 00:21:00,43.8,41.6,29.91,East,93,5.0,9.0,92,0.00,-RA,OVC,0.01,WeatherDisplay:10.37,2013-04-18 04:21:00,
2013-04-18 00:26:00,43.8,41.6,29.89,East,94,8.0,13.0,92,0.01,-RA,OVC,0.02,WeatherDisplay:10.37,2013-04-18 04:26:00,
2013-04-18 00:31:00,43.8,41.6,29.88,East,90,9.0,14.0,92,0.00,-RA,OVC,0.02,WeatherDisplay:10.37,2013-04-18 04:31:00,
2013-04-18 00:36:00,43.9,41.7,29.86,East,92,7.0,16.0,92,0.00,-RA,OVC,0.02,WeatherDisplay:10.37,2013-04-18 04:36:00,
2013-04-18 00:41:00,43.9,41.7,29.84,East,95,9.0,20.0,92,0.01,-RA,OVC,0.03,WeatherDisplay:10.37,2013-04-18 04:41:00,
2013-04-18 00:46:00,43.9,41.7,29.84,East,93,7.0,13.0,92,0.00,-RA,OVC,0.03,WeatherDisplay:10.37,2013-04-18 04:46:00,
2013-04-18 00:51:00,43.9,41.8,29.84,East,93,6.0,13.0,92,0.00,-RA,OVC,0.03,WeatherDisplay:10.37,2013-04-18 04:51:00,
2013-04-18 00:56:00,44.0,41.8,29.84,ESE,104,5.0,12.0,92,0.00,-RA,OVC,0.03,WeatherDisplay:10.37,2013-04-18 04:56:00,
2013-04-18 01:01:00,44.0,41.8,29.83,ESE,107,3.0,7.0,92,0.00,-RA,OVC,0.03,WeatherDisplay:10.37,2013-04-18 05:01:00,
2013-04-18 01:06:00,44.1,41.9,29.83,ESE,107,5.0,9.0,92,0.00,-RA,OVC,0.03,WeatherDisplay:10.37,2013-04-18 05:06:00,
2013-04-18 01:11:00,44.2,42.0,29.83,East,100,6.0,13.0,92,0.00,-RA,OVC,0.03,WeatherDisplay:10.37,2013-04-18 05:11:00,
2013-04-18 01:16:00,44.2,42.0,29.83,East,96,7.0,12.0,92,0.00,-RA,OVC,0.03,WeatherDisplay:10.37,2013-04-18 05:16:00,
2013-04-18 01:21:00,44.3,42.1,29.84,East,98,5.0,10.0,92,0.00,-RA,OVC,0.03,WeatherDisplay:10.37,2013-04-18 05:21:00,
2013-04-18 01:26:00,44.3,42.1,29.84,ESE,108,3.0,6.0,92,0.01,-RA,OVC,0.04,WeatherDisplay:10.37,2013-04-18 05:26:00,
2013-04-18 01:31:00,44.4,42.2,29.85,ESE,106,2.0,7.0,92,0.00,-RA,OVC,0.04,WeatherDisplay:10.37,2013-04-18 05:31:00,
2013-04-18 01:36:00,44.5,42.3,29.86,East,99,3.0,6.0,92,0.00,-RA,OVC,0.04,WeatherDisplay:10.37,2013-04-18 05:36:00,
2013-04-18 01:41:00,44.5,42.3,29.87,ESE,107,2.0,5.0,92,0.00,-RA,OVC,0.04,WeatherDisplay:10.37,2013-04-18 05:41:00,
2013-04-18 01:46:00,44.6,42.4,29.86,East,97,5.0,10.0,92,0.00,-RA,OVC,0.04,WeatherDisplay:10.37,2013-04-18 05:46:00,
2013-04-18 01:51:00,44.6,42.5,29.86,East,93,5.0,9.0,92,0.01,-RA,OVC,0.05,WeatherDisplay:10.37,2013-04-18 05:51:00,
2013-04-18 01:56:00,44.7,42.5,29.85,East,92,6.0,9.0,92,0.00,-RA,OVC,0.05,WeatherDisplay:10.37,2013-04-18 05:56:00,
2013-04-18 02:01:00,44.7,42.5,29.86,East,94,1.0,7.0,92,0.00,-RA,OVC,0.05,WeatherDisplay:10.37,2013-04-18 06:01:00,
2013-04-18 02:06:00,44.8,42.6,29.85,East,91,8.0,19.0,92,0.00,-RA,OVC,0.05,WeatherDisplay:10.37,2013-04-18 06:06:00,
2013-04-18 02:11:00,44.9,42.7,29.84,East,83,8.0,12.0,92,0.01,-RA,OVC,0.06,WeatherDisplay:10.37,2013-04-18 06:11:00,
2013-04-18 02:16:00,44.9,43.0,29.84,East,86,6.0,19.0,93,0.01,-RA,OVC,0.07,WeatherDisplay:10.37,2013-04-18 06:16:00,
2013-04-18 02:21:00,44.9,43.0,29.83,East,90,9.0,19.0,93,0.01,-RA,OVC,0.08,WeatherDisplay:10.37,2013-04-18 06:21:00,
2013-04-18 02:26:00,44.9,42.7,29.83,East,83,8.0,19.0,92,0.01,-RA,OVC,0.09,WeatherDisplay:10.37,2013-04-18 06:26:00,
2013-04-18 02:31:00,44.9,42.7,29.83,ENE,68,6.0,19.0,92,0.01,-RA,OVC,0.10,WeatherDisplay:10.37,2013-04-18 06:31:00,
2013-04-18 02:36:00,44.8,42.7,29.84,NE,56,5.0,19.0,92,0.01,-RA,OVC,0.11,WeatherDisplay:10.37,2013-04-18 06:36:00,
2013-04-18 02:41:00,44.7,42.8,29.84,NE,51,5.0,19.0,93,0.00,-RA,OVC,0.11,WeatherDisplay:10.37,2013-04-18 06:41:00,
2013-04-18 02:46:00,44.7,42.5,29.83,NE,45,6.0,19.0,92,0.00,-RA,OVC,0.12,WeatherDisplay:10.37,2013-04-18 06:46:00,
2013-04-18 02:51:00,44.6,42.4,29.83,NE,41,6.0,19.0,92,0.00,-RA,OVC,0.13,WeatherDisplay:10.37,2013-04-18 06:51:00,
2013-04-18 02:56:00,44.5,42.6,29.82,NE,42,7.0,19.0,93,0.00,-RA,OVC,0.14,WeatherDisplay:10.37,2013-04-18 06:56:00,
2013-04-18 03:01:00,44.4,42.5,29.83,NE,51,6.0,8.0,93,0.01,-RA,OVC,0.16,WeatherDisplay:10.37,2013-04-18 07:01:00,
2013-04-18 03:06:00,44.4,42.5,29.83,ENE,62,5.0,19.0,93,0.02,-RA,OVC,0.18,WeatherDisplay:10.37,2013-04-18 07:06:00,
2013-04-18 03:11:00,44.3,42.4,29.83,ENE,65,2.0,19.0,93,0.02,-RA,OVC,0.20,WeatherDisplay:10.37,2013-04-18 07:11:00,
2013-04-18 03:16:00,44.2,42.3,29.80,ENE,60,8.0,19.0,93,0.02,-RA,OVC,0.23,WeatherDisplay:10.37,2013-04-18 07:16:00,
2013-04-18 03:21:00,44.1,42.2,29.79,ENE,62,9.0,14.0,93,0.01,-RA,OVC,0.24,WeatherDisplay:10.37,2013-04-18 07:21:00,
2013-04-18 03:26:00,44.0,42.1,29.78,ENE,68,8.0,23.0,93,0.02,-RA,OVC,0.26,WeatherDisplay:10.37,2013-04-18 07:26:00,
2013-04-18 03:31:00,43.9,42.0,29.78,ENE,71,8.0,12.0,93,0.01,-RA,OVC,0.27,WeatherDisplay:10.37,2013-04-18 07:31:00,
2013-04-18 03:36:00,44.0,42.1,29.78,ENE,77,6.0,10.0,93,0.02,-RA,OVC,0.29,WeatherDisplay:10.37,2013-04-18 07:36:00,
2013-04-18 03:41:00,44.0,42.1,29.79,East,84,2.0,9.0,93,0.02,-RA,OVC,0.31,WeatherDisplay:10.37,2013-04-18 07:41:00,
2013-04-18 03:46:00,44.0,42.1,29.79,East,85,3.0,8.0,93,0.02,-RA,OVC,0.33,WeatherDisplay:10.37,2013-04-18 07:46:00,
2013-04-18 03:51:00,44.1,42.2,29.78,East,87,6.0,11.0,93,0.02,-RA,OVC,0.35,WeatherDisplay:10.37,2013-04-18 07:51:00,
2013-04-18 03:56:00,44.1,42.2,29.78,East,87,5.0,12.0,93,0.01,-RA,OVC,0.36,WeatherDisplay:10.37,2013-04-18 07:56:00,
2013-04-18 04:01:00,44.1,42.2,29.76,ENE,76,7.0,10.0,93,0.01,RA,OVC,0.38,WeatherDisplay:10.37,2013-04-18 08:01:00,
2013-04-18 04:06:00,44.1,42.2,29.76,ENE,77,8.0,12.0,93,0.02,RA,OVC,0.40,WeatherDisplay:10.37,2013-04-18 08:06:00,
2013-04-18 04:11:00,44.2,42.3,29.77,East,83,3.0,9.0,93,0.03,RA,OVC,0.43,WeatherDisplay:10.37,2013-04-18 08:11:00,
2013-04-18 04:16:00,44.3,42.4,29.76,East,91,5.0,10.0,93,0.02,RA,OVC,0.45,WeatherDisplay:10.37,2013-04-18 08:16:00,
2013-04-18 04:21:00,44.3,42.4,29.77,East,93,0.0,9.0,93,0.01,RA,OVC,0.47,WeatherDisplay:10.37,2013-04-18 08:21:00,
2013-04-18 04:26:00,44.4,42.5,29.77,East,91,2.0,6.0,93,0.01,RA,OVC,0.49,WeatherDisplay:10.37,2013-04-18 08:26:00,
2013-04-18 04:31:00,44.4,42.5,29.75,East,92,9.0,13.0,93,0.01,RA,OVC,0.51,WeatherDisplay:10.37,2013-04-18 08:31:00,
2013-04-18 04:36:00,44.5,42.6,29.75,East,95,3.0,7.0,93,0.00,OVC,OVC,0.52,WeatherDisplay:10.37,2013-04-18 08:36:00,
2013-04-18 04:41:00,44.6,42.7,29.75,East,98,2.0,12.0,93,0.02,RA,OVC,0.55,WeatherDisplay:10.37,2013-04-18 08:41:00,
2013-04-18 04:46:00,44.6,42.7,29.74,ESE,103,3.0,9.0,93,0.02,RA,OVC,0.57,WeatherDisplay:10.37,2013-04-18 08:46:00,
2013-04-18 04:51:00,44.7,42.8,29.74,ESE,105,2.0,8.0,93,0.01,RA,OVC,0.58,WeatherDisplay:10.37,2013-04-18 08:51:00,
2013-04-18 04:56:00,44.7,42.8,29.73,East,99,3.0,8.0,93,0.01,RA,OVC,0.59,WeatherDisplay:10.37,2013-04-18 08:56:00,
2013-04-18 05:01:00,44.8,43.2,29.72,ESE,102,2.0,9.0,94,0.01, +RA,OVC,0.61,WeatherDisplay:10.37,2013-04-18 09:01:00,
2013-04-18 05:06:00,44.9,43.3,29.72,ESE,111,3.0,10.0,94,0.01, +RA,OVC,0.62,WeatherDisplay:10.37,2013-04-18 09:06:00,
2013-04-18 05:11:00,45.0,43.4,29.72,ESE,114,1.0,8.0,94,0.01, +RA,OVC,0.64,WeatherDisplay:10.37,2013-04-18 09:11:00,
2013-04-18 05:16:00,45.2,43.6,29.73,ESE,115,2.0,8.0,94,0.02, +RA,OVC,0.67,WeatherDisplay:10.37,2013-04-18 09:16:00,
2013-04-18 05:21:00,45.4,43.8,29.71,ESE,114,2.0,5.0,94,0.01, +RA,OVC,0.68,WeatherDisplay:10.37,2013-04-18 09:21:00,
2013-04-18 05:26:00,45.6,44.0,29.72,ESE,112,3.0,9.0,94,0.01, +RA,OVC,0.70,WeatherDisplay:10.37,2013-04-18 09:26:00,
2013-04-18 05:31:00,45.8,44.2,29.70,ESE,112,3.0,10.0,94,0.02, +RA,OVC,0.72,WeatherDisplay:10.37,2013-04-18 09:31:00,
2013-04-18 05:36:00,46.0,44.4,29.71,ESE,108,3.0,8.0,94,0.02, +RA,OVC,0.74,WeatherDisplay:10.37,2013-04-18 09:36:00,
2013-04-18 05:41:00,46.2,44.5,29.71,ESE,105,2.0,6.0,94,0.02, +RA,OVC,0.77,WeatherDisplay:10.37,2013-04-18 09:41:00,
2013-04-18 05:46:00,46.4,44.7,29.70,East,89,2.0,7.0,94,0.02, +RA,OVC,0.79,WeatherDisplay:10.37,2013-04-18 09:46:00,
2013-04-18 05:51:00,46.5,44.8,29.69,East,89,3.0,8.0,94,0.01, +RA,OVC,0.81,WeatherDisplay:10.37,2013-04-18 09:51:00,
2013-04-18 05:56:00,46.6,45.0,29.69,East,95,1.0,6.0,94,0.01, +RA,OVC,0.83,WeatherDisplay:10.37,2013-04-18 09:56:00,
2013-04-18 06:01:00,46.7,45.0,29.70,East,98,1.0,4.0,94,0.01,RA,OVC,0.85,WeatherDisplay:10.37,2013-04-18 10:01:00,
2013-04-18 06:06:00,46.7,45.1,29.69,East,95,3.0,7.0,94,0.02,RA,OVC,0.88,WeatherDisplay:10.37,2013-04-18 10:06:00,
2013-04-18 06:11:00,46.8,45.2,29.66,ENE,75,8.0,12.0,94,0.02,RA,OVC,0.90,WeatherDisplay:10.37,2013-04-18 10:11:00,
2013-04-18 06:16:00,46.8,45.2,29.68,ENE,67,1.0,10.0,94,0.01,RA,OVC,0.91,WeatherDisplay:10.37,2013-04-18 10:16:00,
2013-04-18 06:21:00,46.9,45.3,29.64,East,80,6.0,10.0,94,0.01,RA,OVC,0.92,WeatherDisplay:10.37,2013-04-18 10:21:00,
2013-04-18 06:26:00,47.1,45.5,29.63,East,95,3.0,13.0,94,0.01,RA,OVC,0.94,WeatherDisplay:10.37,2013-04-18 10:26:00,
2013-04-18 06:31:00,47.4,45.8,29.63,East,100,3.0,15.0,94,0.00,OVC,OVC,0.94,WeatherDisplay:10.37,2013-04-18 10:31:00,
2013-04-18 06:36:00,47.7,46.1,29.63,East,100,5.0,9.0,94,0.01,RA,OVC,0.95,WeatherDisplay:10.37,2013-04-18 10:36:00,
2013-04-18 06:41:00,48.1,46.4,29.62,East,93,2.0,8.0,94,0.04,RA,OVC,0.99,WeatherDisplay:10.37,2013-04-18 10:41:00,
2013-04-18 06:46:00,48.3,46.7,29.63,East,96,2.0,12.0,94,0.05,RA,OVC,1.05,WeatherDisplay:10.37,2013-04-18 10:46:00,
2013-04-18 06:51:00,48.6,47.0,29.66,ENE,59,8.0,13.0,94,0.07,RA,OVC,1.13,WeatherDisplay:10.37,2013-04-18 10:51:00,
2013-04-18 06:56:00,48.1,46.5,29.68,WNW,296,5.0,12.0,94,0.09,RA,OVC,1.24,WeatherDisplay:10.37,2013-04-18 10:56:00,
2013-04-18 07:01:00,47.8,46.2,29.66,WNW,300,2.0,4.0,94,0.08,RA,OVC,1.36,WeatherDisplay:10.37,2013-04-18 11:01:00,
2013-04-18 07:06:00,47.8,46.2,29.66,ENE,59,1.0,4.0,94,0.03,RA,OVC,1.39,WeatherDisplay:10.37,2013-04-18 11:06:00,
2013-04-18 07:11:00,47.8,46.2,29.68,ENE,77,0.0,3.0,94,0.02,RA,OVC,1.41,WeatherDisplay:10.37,2013-04-18 11:11:00,
2013-04-18 07:16:00,47.9,46.3,29.69,ENE,77,1.0,3.0,94,0.01,RA,OVC,1.43,WeatherDisplay:10.37,2013-04-18 11:16:00,
2013-04-18 07:21:00,47.8,46.2,29.69,North,358,3.0,4.0,94,0.02,RA,OVC,1.46,WeatherDisplay:10.37,2013-04-18 11:21:00,
2013-04-18 07:26:00,47.7,46.0,29.65,NNE,16,6.0,6.0,94,0.01,RA,OVC,1.47,WeatherDisplay:10.37,2013-04-18 11:26:00,
2013-04-18 07:31:00,47.6,46.0,29.65,NE,48,3.0,7.0,94,0.00,OVC,OVC,1.47,WeatherDisplay:10.37,2013-04-18 11:31:00,
2013-04-18 07:36:00,47.6,46.0,29.66,ENE,74,2.0,6.0,94,0.01,OVC,OVC,1.48,WeatherDisplay:10.37,2013-04-18 11:36:00,
2013-04-18 07:41:00,47.6,46.0,29.66,East,83,0.0,1.0,94,0.00,OVC,OVC,1.48,WeatherDisplay:10.37,2013-04-18 11:41:00,
2013-04-18 07:46:00,47.8,46.1,29.64,East,83,6.0,7.0,94,0.00,OVC,OVC,1.48,WeatherDisplay:10.37,2013-04-18 11:46:00,
2013-04-18 07:51:00,48.0,46.4,29.63,East,83,3.0,8.0,94,0.00,OVC,OVC,1.48,WeatherDisplay:10.37,2013-04-18 11:51:00,
2013-04-18 07:56:00,48.2,46.6,29.64,East,86,1.0,6.0,94,0.00,OVC,OVC,1.48,WeatherDisplay:10.37,2013-04-18 11:56:00,
2013-04-18 08:01:00,48.5,46.9,29.64,ESE,107,1.0,4.0,94,0.01,RA,OVC,1.49,WeatherDisplay:10.37,2013-04-18 12:01:00,
2013-04-18 08:06:00,48.9,47.3,29.63,ESE,118,1.0,6.0,94,0.01,RA,OVC,1.50,WeatherDisplay:10.37,2013-04-18 12:06:00,
2013-04-18 08:11:00,49.1,47.5,29.63,ESE,112,2.0,3.0,94,0.00,OVC,OVC,1.50,WeatherDisplay:10.37,2013-04-18 12:11:00,
2013-04-18 08:16:00,49.4,48.0,29.62,ESE,109,1.0,5.0,95,0.00,OVC,OVC,1.50,WeatherDisplay:10.37,2013-04-18 12:16:00,
2013-04-18 08:21:00,49.6,48.0,29.62,ESE,116,2.0,7.0,94,0.01,RA,OVC,1.51,WeatherDisplay:10.37,2013-04-18 12:21:00,
2013-04-18 08:26:00,49.9,48.5,29.62,ESE,121,1.0,7.0,95,0.00,OVC,OVC,1.51,WeatherDisplay:10.37,2013-04-18 12:26:00,
2013-04-18 08:31:00,50.3,48.9,29.63,SE,125,5.0,9.0,95,0.00,OVC,OVC,1.51,WeatherDisplay:10.37,2013-04-18 12:31:00,
2013-04-18 08:36:00,50.5,49.2,29.63,SE,128,0.0,3.0,95,0.01,RA,OVC,1.52,WeatherDisplay:10.37,2013-04-18 12:36:00,
2013-04-18 08:41:00,50.9,49.5,29.63,ESE,108,1.0,5.0,95,0.00,OVC,OVC,1.52,WeatherDisplay:10.37,2013-04-18 12:41:00,
2013-04-18 08:46:00,51.0,49.6,29.62,ESE,103,1.0,3.0,95,0.00,OVC,OVC,1.52,WeatherDisplay:10.37,2013-04-18 12:46:00,
2013-04-18 08:51:00,51.2,49.8,29.62,SE,140,0.0,4.0,95,0.00,OVC,OVC,1.52,WeatherDisplay:10.37,2013-04-18 12:51:00,
2013-04-18 08:56:00,51.3,49.9,29.58,East,100,8.0,12.0,95,0.01,RA,OVC,1.53,WeatherDisplay:10.37,2013-04-18 12:56:00,
2013-04-18 09:01:00,51.3,49.9,29.60,ESE,109,0.0,4.0,95,0.01,RA,OVC,1.54,WeatherDisplay:10.37,2013-04-18 13:01:00,
2013-04-18 09:06:00,51.4,50.0,29.59,SE,143,2.0,5.0,95,0.01,RA,OVC,1.55,WeatherDisplay:10.37,2013-04-18 13:06:00,
2013-04-18 09:11:00,51.4,50.0,29.58,ESE,107,1.0,5.0,95,0.01,OVC,OVC,1.56,WeatherDisplay:10.37,2013-04-18 13:11:00,
2013-04-18 09:16:00,51.6,50.2,29.57,ESE,113,1.0,7.0,95,0.00,OVC,OVC,1.57,WeatherDisplay:10.37,2013-04-18 13:16:00,
2013-04-18 09:21:00,51.7,50.3,29.58,SE,130,3.0,8.0,95,0.00,OVC,OVC,1.57,WeatherDisplay:10.37,2013-04-18 13:21:00,
2013-04-18 09:26:00,51.9,50.5,29.57,SE,128,2.0,10.0,95,0.00,OVC,OVC,1.57,WeatherDisplay:10.37,2013-04-18 13:26:00,
2013-04-18 09:31:00,52.0,50.6,29.57,SE,127,1.0,5.0,95,0.00,OVC,OVC,1.57,WeatherDisplay:10.37,2013-04-18 13:31:00,
2013-04-18 09:36:00,52.2,50.8,29.56,SE,128,2.0,5.0,95,0.01,RA,OVC,1.58,WeatherDisplay:10.37,2013-04-18 13:36:00,
2013-04-18 09:41:00,52.4,51.0,29.56,ESE,110,3.0,8.0,95,0.00,OVC,OVC,1.58,WeatherDisplay:10.37,2013-04-18 13:41:00,
2013-04-18 09:46:00,52.5,51.1,29.55,ESE,120,1.0,5.0,95,0.00,OVC,OVC,1.58,WeatherDisplay:10.37,2013-04-18 13:46:00,
2013-04-18 09:51:00,52.6,51.2,29.55,SE,126,2.0,9.0,95,0.00,OVC,OVC,1.58,WeatherDisplay:10.37,2013-04-18 13:51:00,
2013-04-18 09:56:00,52.7,51.3,29.56,SE,125,1.0,6.0,95,0.00,OVC,OVC,1.58,WeatherDisplay:10.37,2013-04-18 13:56:00,
2013-04-18 10:01:00,52.6,51.2,29.55,SE,124,3.0,8.0,95,0.00,OVC,OVC,1.58,WeatherDisplay:10.37,2013-04-18 14:01:00,
2013-04-18 10:06:00,52.7,51.3,29.54,SE,128,2.0,7.0,95,0.00,OVC,OVC,1.58,WeatherDisplay:10.37,2013-04-18 14:06:00,
2013-04-18 10:11:00,52.7,51.3,29.54,SE,137,3.0,7.0,95,0.00,OVC,OVC,1.58,WeatherDisplay:10.37,2013-04-18 14:11:00,
2013-04-18 10:16:00,52.9,51.5,29.53,SE,136,2.0,7.0,95,0.00,OVC,OVC,1.58,WeatherDisplay:10.37,2013-04-18 14:16:00,
2013-04-18 10:21:00,53.0,51.6,29.53,SE,129,2.0,10.0,95,0.02,RA,OVC,1.60,WeatherDisplay:10.37,2013-04-18 14:21:00,
2013-04-18 10:26:00,53.0,51.6,29.52,SE,128,3.0,8.0,95,0.00,OVC,OVC,1.60,WeatherDisplay:10.37,2013-04-18 14:26:00,
2013-04-18 10:31:00,52.9,51.5,29.52,ESE,120,3.0,10.0,95,0.00,OVC,OVC,1.60,WeatherDisplay:10.37,2013-04-18 14:31:00,
2013-04-18 10:36:00,52.9,51.5,29.51,SE,124,2.0,7.0,95,0.00,OVC,OVC,1.60,WeatherDisplay:10.37,2013-04-18 14:36:00,
2013-04-18 10:41:00,53.1,51.7,29.50,SE,132,2.0,8.0,95,0.00,OVC,OVC,1.60,WeatherDisplay:10.37,2013-04-18 14:41:00,
2013-04-18 10:46:00,53.3,51.9,29.51,SE,131,2.0,8.0,95,0.00,OVC,OVC,1.60,WeatherDisplay:10.37,2013-04-18 14:46:00,
2013-04-18 10:51:00,53.4,52.0,29.50,ESE,117,3.0,12.0,95,0.00,OVC,OVC,1.60,WeatherDisplay:10.37,2013-04-18 14:51:00,
2013-04-18 10:56:00,53.5,52.4,29.49,ESE,110,2.0,10.0,96,0.00,OVC,OVC,1.60,WeatherDisplay:10.37,2013-04-18 14:56:00,
2013-04-18 11:01:00,53.5,52.1,29.49,SE,125,2.0,12.0,95,0.00,OVC,OVC,1.60,WeatherDisplay:10.37,2013-04-18 15:01:00,
2013-04-18 11:06:00,53.6,52.2,29.52,WSW,244,12.0,17.0,95,0.00,OVC,OVC,1.60,WeatherDisplay:10.37,2013-04-18 15:06:00,
2013-04-18 11:11:00,53.5,52.1,29.53,NW,306,5.0,17.0,95,0.00,OVC,OVC,1.60,WeatherDisplay:10.37,2013-04-18 15:11:00,
2013-04-18 11:16:00,53.5,52.1,29.50,NNW,328,1.0,7.0,95,0.00,OVC,OVC,1.60,WeatherDisplay:10.37,2013-04-18 15:16:00,
2013-04-18 11:21:00,53.9,52.5,29.49,ESE,115,3.0,9.0,95,0.00,OVC,OVC,1.60,WeatherDisplay:10.37,2013-04-18 15:21:00,
2013-04-18 11:26:00,54.8,53.4,29.51,WSW,239,5.0,7.0,95,0.00,OVC,OVC,1.60,WeatherDisplay:10.37,2013-04-18 15:26:00,
2013-04-18 11:31:00,54.5,53.1,29.50,WNW,292,5.0,7.0,95,0.00,OVC,OVC,1.60,WeatherDisplay:10.37,2013-04-18 15:31:00,
2013-04-18 11:36:00,54.0,52.3,29.51,North,349,3.0,6.0,94,0.00,OVC,OVC,1.60,WeatherDisplay:10.37,2013-04-18 15:36:00,
2013-04-18 11:41:00,53.9,52.2,29.55,NW,315,3.0,6.0,94,0.08,RA,OVC,1.68,WeatherDisplay:10.37,2013-04-18 15:41:00,
2013-04-18 11:46:00,54.3,52.9,29.51,WNW,290,0.0,6.0,95,0.03,RA,OVC,1.72,WeatherDisplay:10.37,2013-04-18 15:46:00,
2013-04-18 11:51:00,54.4,52.7,29.51,NNW,335,1.0,3.0,94,0.01,RA,OVC,1.73,WeatherDisplay:10.37,2013-04-18 15:51:00,
2013-04-18 11:56:00,54.5,52.8,29.51,East,82,0.0,0.0,94,0.00,OVC,OVC,1.73,WeatherDisplay:10.37,2013-04-18 15:56:00,
2013-04-18 12:01:00,54.6,52.9,29.51,East,82,0.0,1.0,94,0.00,OVC,OVC,1.73,WeatherDisplay:10.37,2013-04-18 16:01:00,
2013-04-18 12:06:00,54.8,53.4,29.52,East,82,0.0,0.0,95,0.00,OVC,OVC,1.73,WeatherDisplay:10.37,2013-04-18 16:06:00,
2013-04-18 12:11:00,55.0,53.6,29.52,East,82,0.0,1.0,95,0.00,OVC,OVC,1.73,WeatherDisplay:10.37,2013-04-18 16:11:00,
2013-04-18 12:16:00,55.0,53.3,29.51,East,82,1.0,2.0,94,0.00,OVC,OVC,1.73,WeatherDisplay:10.37,2013-04-18 16:16:00,
2013-04-18 12:21:00,55.0,53.3,29.51,East,82,0.0,0.0,94,0.00,OVC,OVC,1.73,WeatherDisplay:10.37,2013-04-18 16:21:00,
2013-04-18 12:26:00,55.2,53.5,29.50,East,82,0.0,0.0,94,0.00,OVC,OVC,1.73,WeatherDisplay:10.37,2013-04-18 16:26:00,
2013-04-18 12:31:00,55.4,54.0,29.50,East,82,0.0,0.0,95,0.00,OVC,OVC,1.73,WeatherDisplay:10.37,2013-04-18 16:31:00,
2013-04-18 12:36:00,55.8,54.4,29.51,East,82,0.0,2.0,95,0.00,OVC,OVC,1.73,WeatherDisplay:10.37,2013-04-18 16:36:00,
2013-04-18 12:41:00,56.2,54.8,29.51,East,82,0.0,2.0,95,0.00,OVC,OVC,1.73,WeatherDisplay:10.37,2013-04-18 16:41:00,
2013-04-18 12:46:00,56.5,55.1,29.51,East,82,1.0,3.0,95,0.00,OVC,OVC,1.73,WeatherDisplay:10.37,2013-04-18 16:46:00,
2013-04-18 12:51:00,56.8,55.4,29.51,SSE,165,2.0,5.0,95,0.01,RA,OVC,1.74,WeatherDisplay:10.37,2013-04-18 16:51:00,
2013-04-18 12:56:00,57.0,55.6,29.50,SSW,194,3.0,5.0,95,0.00,OVC,OVC,1.74,WeatherDisplay:10.37,2013-04-18 16:56:00,
2013-04-18 13:01:00,57.2,55.7,29.50,SSW,195,2.0,5.0,95,0.01,RA,OVC,1.75,WeatherDisplay:10.37,2013-04-18 17:01:00,
2013-04-18 13:06:00,57.3,55.9,29.50,SSW,207,3.0,6.0,95,0.00,OVC,OVC,1.75,WeatherDisplay:10.37,2013-04-18 17:06:00,
2013-04-18 13:11:00,57.3,55.9,29.49,SSW,198,3.0,5.0,95,0.00,OVC,OVC,1.75,WeatherDisplay:10.37,2013-04-18 17:11:00,
2013-04-18 13:16:00,57.5,56.1,29.49,South,171,3.0,5.0,95,0.01,OVC,OVC,1.76,WeatherDisplay:10.37,2013-04-18 17:16:00,
2013-04-18 13:21:00,57.7,56.3,29.49,SSE,166,2.0,6.0,95,0.00,OVC,OVC,1.76,WeatherDisplay:10.37,2013-04-18 17:21:00,
2013-04-18 13:26:00,57.9,56.5,29.50,South,179,2.0,7.0,95,0.01,RA,OVC,1.77,WeatherDisplay:10.37,2013-04-18 17:26:00,
2013-04-18 13:31:00,58.0,56.6,29.50,SSW,194,3.0,6.0,95,0.00,OVC,OVC,1.77,WeatherDisplay:10.37,2013-04-18 17:31:00,
2013-04-18 13:36:00,58.3,56.9,29.51,SSW,205,3.0,6.0,95,0.00,OVC,OVC,1.77,WeatherDisplay:10.37,2013-04-18 17:36:00,
2013-04-18 13:41:00,58.6,57.2,29.51,SW,214,3.0,7.0,95,0.00,OVC,OVC,1.77,WeatherDisplay:10.37,2013-04-18 17:41:00,
2013-04-18 13:46:00,59.0,57.5,29.51,SW,219,5.0,12.0,95,0.01,RA,OVC,1.78,WeatherDisplay:10.37,2013-04-18 17:46:00,
2013-04-18 13:51:00,59.3,57.9,29.52,SW,217,5.0,7.0,95,0.00,OVC,OVC,1.78,WeatherDisplay:10.37,2013-04-18 17:51:00,
2013-04-18 13:56:00,59.6,58.2,29.52,SSW,207,7.0,12.0,95,0.01,RA,OVC,1.79,WeatherDisplay:10.37,2013-04-18 17:56:00,
2013-04-18 14:01:00,59.9,58.5,29.52,SSW,211,5.0,10.0,95,0.00,-RA,OVC,1.79,WeatherDisplay:10.37,2013-04-18 18:01:00,
2013-04-18 14:06:00,60.0,58.6,29.52,SW,216,6.0,9.0,95,0.01,-RA,OVC,1.80,WeatherDisplay:10.37,2013-04-18 18:06:00,
2013-04-18 14:11:00,60.2,58.8,29.52,SW,216,6.0,12.0,95,0.00,-RA,OVC,1.80,WeatherDisplay:10.37,2013-04-18 18:11:00,
2013-04-18 14:16:00,60.2,58.8,29.52,SW,219,6.0,14.0,95,0.00,-RA,OVC,1.80,WeatherDisplay:10.37,2013-04-18 18:16:00,
2013-04-18 14:21:00,60.3,58.9,29.52,SW,223,8.0,18.0,95,0.00,-RA,OVC,1.80,WeatherDisplay:10.37,2013-04-18 18:21:00,
2013-04-18 14:26:00,60.3,58.9,29.53,SW,220,7.0,18.0,95,0.00,-RA,OVC,1.80,WeatherDisplay:10.37,2013-04-18 18:26:00,
2013-04-18 14:31:00,60.3,58.9,29.53,SW,223,6.0,21.0,95,0.00,-RA,OVC,1.80,WeatherDisplay:10.37,2013-04-18 18:31:00,
2013-04-18 14:36:00,60.2,58.5,29.54,SW,228,7.0,12.0,94,0.00,-RA,OVC,1.81,WeatherDisplay:10.37,2013-04-18 18:36:00,
2013-04-18 14:41:00,60.0,58.3,29.54,SW,229,7.0,20.0,94,0.00,-RA,OVC,1.81,WeatherDisplay:10.37,2013-04-18 18:41:00,
2013-04-18 14:46:00,59.8,58.1,29.55,SW,228,8.0,17.0,94,0.00,-RA,OVC,1.81,WeatherDisplay:10.37,2013-04-18 18:46:00,
2013-04-18 14:51:00,59.7,58.0,29.55,SW,227,5.0,13.0,94,0.00,-RA,OVC,1.81,WeatherDisplay:10.37,2013-04-18 18:51:00,
2013-04-18 14:56:00,59.5,57.8,29.55,SW,235,10.0,16.0,94,0.00,-RA,OVC,1.81,WeatherDisplay:10.37,2013-04-18 18:56:00,
2013-04-18 15:01:00,59.3,57.3,29.54,SW,236,8.0,16.0,93,0.00,-RA,OVC,1.81,WeatherDisplay:10.37,2013-04-18 19:01:00,
2013-04-18 15:06:00,59.1,57.1,29.54,SW,232,6.0,17.0,93,0.00,-RA,OVC,1.81,WeatherDisplay:10.37,2013-04-18 19:06:00,
2013-04-18 15:11:00,58.9,56.9,29.55,SW,232,7.0,12.0,93,0.00,-RA,OVC,1.81,WeatherDisplay:10.37,2013-04-18 19:11:00,
2013-04-18 15:16:00,58.6,56.6,29.56,SW,234,10.0,20.0,93,0.00,-RA,OVC,1.81,WeatherDisplay:10.37,2013-04-18 19:16:00,
2013-04-18 15:21:00,58.2,56.2,29.56,SW,236,10.0,17.0,93,0.00,-RA,OVC,1.81,WeatherDisplay:10.37,2013-04-18 19:21:00,
2013-04-18 15:26:00,58.1,56.1,29.56,WSW,240,7.0,17.0,93,0.00,-RA,OVC,1.81,WeatherDisplay:10.37,2013-04-18 19:26:00,
2013-04-18 15:31:00,58.0,56.0,29.56,SW,235,5.0,12.0,93,0.00,-RA,OVC,1.81,WeatherDisplay:10.37,2013-04-18 19:31:00,
2013-04-18 15:36:00,57.9,55.9,29.55,SW,225,8.0,15.0,93,0.00,-RA,OVC,1.81,WeatherDisplay:10.37,2013-04-18 19:36:00,
2013-04-18 15:41:00,57.8,55.8,29.55,SW,224,7.0,12.0,93,0.00,-RA,OVC,1.81,WeatherDisplay:10.37,2013-04-18 19:41:00,
2013-04-18 15:46:00,57.8,55.8,29.55,SW,229,3.0,8.0,93,0.00,-RA,OVC,1.81,WeatherDisplay:10.37,2013-04-18 19:46:00,
2013-04-18 15:51:00,57.9,55.9,29.55,SW,231,6.0,12.0,93,0.00,-RA,OVC,1.81,WeatherDisplay:10.37,2013-04-18 19:51:00,
2013-04-18 15:56:00,57.9,55.9,29.55,WSW,244,3.0,10.0,93,0.00,-RA,OVC,1.81,WeatherDisplay:10.37,2013-04-18 19:56:00,
2013-04-18 16:01:00,57.8,55.7,29.55,WSW,254,2.0,7.0,93,0.00,-RA,OVC,1.81,WeatherDisplay:10.37,2013-04-18 20:01:00,
2013-04-18 16:06:00,57.5,55.5,29.54,WSW,247,2.0,6.0,93,0.00,-RA,OVC,1.81,WeatherDisplay:10.37,2013-04-18 20:06:00,
2013-04-18 16:11:00,57.3,55.3,29.54,WSW,237,3.0,7.0,93,0.00,-RA,OVC,1.81,WeatherDisplay:10.37,2013-04-18 20:11:00,
2013-04-18 16:16:00,57.3,55.3,29.54,SW,217,5.0,7.0,93,0.00,-RA,OVC,1.81,WeatherDisplay:10.37,2013-04-18 20:16:00,
2013-04-18 16:21:00,57.4,55.4,29.54,SSW,213,3.0,7.0,93,0.00,-RA,OVC,1.81,WeatherDisplay:10.37,2013-04-18 20:21:00,
2013-04-18 16:26:00,57.4,55.4,29.54,SSW,203,5.0,8.0,93,0.00,-RA,OVC,1.81,WeatherDisplay:10.37,2013-04-18 20:26:00,
2013-04-18 16:31:00,57.6,55.9,29.53,SSW,206,2.0,10.0,94,0.00,-RA,OVC,1.81,WeatherDisplay:10.37,2013-04-18 20:31:00,
2013-04-18 16:36:00,57.7,56.0,29.52,SSW,209,2.0,5.0,94,0.00,-RA,OVC,1.81,WeatherDisplay:10.37,2013-04-18 20:36:00,
2013-04-18 16:41:00,57.9,56.2,29.52,SW,219,2.0,4.0,94,0.00,-RA,OVC,1.81,WeatherDisplay:10.37,2013-04-18 20:41:00,
2013-04-18 16:46:00,58.0,56.3,29.52,SW,220,1.0,3.0,94,0.00,-RA,OVC,1.81,WeatherDisplay:10.37,2013-04-18 20:46:00,
2013-04-18 16:51:00,58.0,56.0,29.52,SW,220,1.0,3.0,93,0.00,-RA,OVC,1.81,WeatherDisplay:10.37,2013-04-18 20:51:00,
2013-04-18 16:56:00,58.1,56.4,29.52,SW,229,1.0,5.0,94,0.00,-RA,OVC,1.81,WeatherDisplay:10.37,2013-04-18 20:56:00,
2013-04-18 17:01:00,57.4,55.4,29.52,WNW,295,6.0,7.0,93,0.00,-RA,OVC,1.81,WeatherDisplay:10.37,2013-04-18 21:01:00,
2013-04-18 17:06:00,56.4,54.1,29.51,NW,311,3.0,7.0,92,0.00,-RA,OVC,1.81,WeatherDisplay:10.37,2013-04-18 21:06:00,
2013-04-18 17:11:00,55.9,53.9,29.51,NW,319,2.0,4.0,93,0.00,-RA,OVC,1.81,WeatherDisplay:10.37,2013-04-18 21:11:00,
2013-04-18 17:16:00,55.7,53.7,29.51,NW,319,3.0,5.0,93,0.00,-RA,OVC,1.81,WeatherDisplay:10.37,2013-04-18 21:16:00,
2013-04-18 17:21:00,55.6,53.6,29.52,NW,318,3.0,5.0,93,0.00,-RA,OVC,1.81,WeatherDisplay:10.37,2013-04-18 21:21:00,
2013-04-18 17:26:00,55.6,53.6,29.52,NW,317,2.0,4.0,93,0.00,-RA,OVC,1.81,WeatherDisplay:10.37,2013-04-18 21:26:00,
2013-04-18 17:31:00,55.5,53.8,29.51,NW,317,1.0,2.0,94,0.00,-RA,OVC,1.81,WeatherDisplay:10.37,2013-04-18 21:31:00,
2013-04-18 17:36:00,55.6,53.9,29.51,NW,317,0.0,1.0,94,0.00,-RA,OVC,1.81,WeatherDisplay:10.37,2013-04-18 21:36:00,
2013-04-18 17:41:00,55.7,54.0,29.50,NNW,346,2.0,3.0,94,0.00,-RA,OVC,1.81,WeatherDisplay:10.37,2013-04-18 21:41:00,
2013-04-18 17:46:00,56.0,54.3,29.51,SE,124,2.0,4.0,94,0.00,-RA,OVC,1.81,WeatherDisplay:10.37,2013-04-18 21:46:00,
2013-04-18 17:51:00,56.3,54.6,29.51,SW,225,2.0,3.0,94,0.00,-RA,OVC,1.81,WeatherDisplay:10.37,2013-04-18 21:51:00,
2013-04-18 17:56:00,56.4,54.7,29.51,WSW,242,2.0,3.0,94,0.00,-RA,OVC,1.81,WeatherDisplay:10.37,2013-04-18 21:56:00,
2013-04-18 18:01:00,56.4,54.7,29.50,WSW,242,1.0,3.0,94,0.00,-RA,OVC,1.81,WeatherDisplay:10.37,2013-04-18 22:01:00,
2013-04-18 18:06:00,56.6,54.9,29.50,WSW,242,1.0,2.0,94,0.00,-RA,OVC,1.81,WeatherDisplay:10.37,2013-04-18 22:06:00,
2013-04-18 18:11:00,56.8,55.1,29.50,WSW,242,0.0,1.0,94,0.00,-RA,OVC,1.81,WeatherDisplay:10.37,2013-04-18 22:11:00,
2013-04-18 18:16:00,57.0,55.3,29.50,SW,226,1.0,6.0,94,0.00,-RA,OVC,1.81,WeatherDisplay:10.37,2013-04-18 22:16:00,
2013-04-18 18:21:00,57.5,56.1,29.49,South,174,3.0,7.0,95,0.00,-RA,OVC,1.81,WeatherDisplay:10.37,2013-04-18 22:21:00,
2013-04-18 18:26:00,58.6,57.2,29.49,South,174,3.0,10.0,95,0.00,-RA,OVC,1.81,WeatherDisplay:10.37,2013-04-18 22:26:00,
2013-04-18 18:31:00,59.5,58.0,29.48,South,170,5.0,10.0,95,0.00,-RA,OVC,1.81,WeatherDisplay:10.37,2013-04-18 22:31:00,
2013-04-18 18:36:00,59.9,58.5,29.49,South,176,5.0,7.0,95,0.00,-RA,OVC,1.81,WeatherDisplay:10.37,2013-04-18 22:36:00,
2013-04-18 18:41:00,60.3,58.9,29.48,South,170,5.0,20.0,95,0.01,-RA,OVC,1.82,WeatherDisplay:10.37,2013-04-18 22:41:00,
2013-04-18 18:46:00,60.6,58.9,29.47,South,169,6.0,10.0,94,0.00,-RA,OVC,1.82,WeatherDisplay:10.37,2013-04-18 22:46:00,
2013-04-18 18:51:00,60.8,58.5,29.47,South,170,9.0,17.0,92,0.00,-RA,OVC,1.82,WeatherDisplay:10.37,2013-04-18 22:51:00,
2013-04-18 18:56:00,61.2,58.5,29.47,SSE,161,6.0,14.0,91,0.00,-RA,OVC,1.82,WeatherDisplay:10.37,2013-04-18 22:56:00,
2013-04-18 19:01:00,61.4,58.4,29.46,South,179,6.0,18.0,90,0.00,-RA,OVC,1.82,WeatherDisplay:10.37,2013-04-18 23:01:00,
2013-04-18 19:06:00,61.6,58.4,29.46,South,178,7.0,21.0,89,0.00,-RA,OVC,1.82,WeatherDisplay:10.37,2013-04-18 23:06:00,
2013-04-18 19:11:00,61.8,58.2,29.45,South,172,5.0,9.0,88,0.00,-RA,OVC,1.82,WeatherDisplay:10.37,2013-04-18 23:11:00,
2013-04-18 19:16:00,61.8,58.2,29.42,SSE,157,6.0,10.0,88,0.00,-RA,OVC,1.82,WeatherDisplay:10.37,2013-04-18 23:16:00,
2013-04-18 19:21:00,61.7,58.1,29.42,SE,146,5.0,12.0,88,0.00,-RA,OVC,1.82,WeatherDisplay:10.37,2013-04-18 23:21:00,
2013-04-18 19:26:00,61.7,58.1,29.42,SSE,154,5.0,11.0,88,0.00,-RA,OVC,1.82,WeatherDisplay:10.37,2013-04-18 23:26:00,
2013-04-18 19:31:00,61.7,57.8,29.42,SSE,164,5.0,10.0,87,0.00,-RA,OVC,1.82,WeatherDisplay:10.37,2013-04-18 23:31:00,
2013-04-18 19:36:00,61.8,57.9,29.43,South,169,6.0,12.0,87,0.00,-RA,OVC,1.82,WeatherDisplay:10.37,2013-04-18 23:36:00,
2013-04-18 19:41:00,61.8,57.6,29.43,SSE,163,6.0,14.0,86,0.00,-RA,OVC,1.82,WeatherDisplay:10.37,2013-04-18 23:41:00,
2013-04-18 19:46:00,61.8,57.6,29.43,South,169,3.0,8.0,86,0.00,-RA,OVC,1.82,WeatherDisplay:10.37,2013-04-18 23:46:00,
2013-04-18 19:51:00,61.8,57.6,29.42,South,177,3.0,16.0,86,0.00,-RA,OVC,1.82,WeatherDisplay:10.37,2013-04-18 23:51:00,
2013-04-18 19:56:00,61.7,57.5,29.42,South,174,6.0,14.0,86,0.00,-RA,OVC,1.82,WeatherDisplay:10.37,2013-04-18 23:56:00,
2013-04-18 20:01:00,61.8,57.6,29.42,South,176,7.0,20.0,86,0.00,OVC,OVC,1.82,WeatherDisplay:10.37,2013-04-19 00:01:00,
2013-04-18 20:06:00,61.8,57.6,29.41,SSE,167,6.0,15.0,86,0.00,OVC,OVC,1.82,WeatherDisplay:10.37,2013-04-19 00:06:00,
2013-04-18 20:11:00,61.7,57.5,29.39,SSE,153,7.0,14.0,86,0.00,OVC,OVC,1.82,WeatherDisplay:10.37,2013-04-19 00:11:00,
2013-04-18 20:16:00,61.6,57.0,29.38,SSE,158,3.0,12.0,85,0.00,OVC,OVC,1.82,WeatherDisplay:10.37,2013-04-19 00:16:00,
2013-04-18 20:21:00,61.7,57.1,29.38,SSE,161,3.0,12.0,85,0.00,OVC,OVC,1.82,WeatherDisplay:10.37,2013-04-19 00:21:00,
2013-04-18 20:26:00,61.9,56.7,29.38,SSE,158,2.0,15.0,83,0.00,OVC,OVC,1.82,WeatherDisplay:10.37,2013-04-19 00:26:00,
2013-04-18 20:31:00,62.2,57.0,29.41,SSW,206,6.0,20.0,83,0.00,OVC,OVC,1.82,WeatherDisplay:10.37,2013-04-19 00:31:00,
2013-04-18 20:36:00,62.3,56.7,29.44,WSW,246,6.0,10.0,82,0.00,OVC,OVC,1.82,WeatherDisplay:10.37,2013-04-19 00:36:00,
2013-04-18 20:41:00,62.0,56.8,29.46,WSW,251,5.0,8.0,83,0.00,OVC,OVC,1.82,WeatherDisplay:10.37,2013-04-19 00:41:00,
2013-04-18 20:46:00,62.2,56.9,29.45,SW,233,5.0,12.0,83,0.00,OVC,OVC,1.82,WeatherDisplay:10.37,2013-04-19 00:46:00,
2013-04-18 20:51:00,62.1,56.6,29.44,SW,224,3.0,7.0,82,0.00,OVC,OVC,1.82,WeatherDisplay:10.37,2013-04-19 00:51:00,
2013-04-18 20:56:00,62.1,56.5,29.41,SSW,202,1.0,8.0,82,0.00,OVC,OVC,1.82,WeatherDisplay:10.37,2013-04-19 00:56:00,
2013-04-18 21:01:00,62.0,56.4,29.43,SSW,204,5.0,7.0,82,0.00,BKN,OVC,1.82,WeatherDisplay:10.37,2013-04-19 01:01:00,
2013-04-18 21:06:00,62.0,56.4,29.44,SW,220,2.0,5.0,82,0.00,BKN,OVC,1.82,WeatherDisplay:10.37,2013-04-19 01:06:00,
2013-04-18 21:11:00,61.8,56.3,29.45,WSW,237,3.0,7.0,82,0.00,BKN,OVC,1.82,WeatherDisplay:10.37,2013-04-19 01:11:00,
2013-04-18 21:16:00,61.7,56.1,29.46,SW,230,3.0,6.0,82,0.00,BKN,OVC,1.82,WeatherDisplay:10.37,2013-04-19 01:16:00,
2013-04-18 21:21:00,61.7,56.1,29.45,SW,216,2.0,7.0,82,0.00,BKN,OVC,1.82,WeatherDisplay:10.37,2013-04-19 01:21:00,
2013-04-18 21:26:00,61.6,56.0,29.45,South,187,1.0,6.0,82,0.00,BKN,OVC,1.82,WeatherDisplay:10.37,2013-04-19 01:26:00,
2013-04-18 21:31:00,61.6,56.0,29.45,South,173,1.0,6.0,82,0.00,BKN,OVC,1.82,WeatherDisplay:10.37,2013-04-19 01:31:00,
2013-04-18 21:36:00,61.5,56.0,29.44,South,169,1.0,7.0,82,0.00,BKN,OVC,1.82,WeatherDisplay:10.37,2013-04-19 01:36:00,
2013-04-18 21:41:00,61.4,56.2,29.43,SSE,149,1.0,3.0,83,0.00,BKN,OVC,1.82,WeatherDisplay:10.37,2013-04-19 01:41:00,
2013-04-18 21:46:00,61.2,56.0,29.43,SE,142,1.0,7.0,83,0.00,BKN,OVC,1.82,WeatherDisplay:10.37,2013-04-19 01:46:00,
2013-04-18 21:51:00,61.2,56.0,29.44,SSE,155,3.0,9.0,83,0.00,BKN,OVC,1.82,WeatherDisplay:10.37,2013-04-19 01:51:00,
2013-04-18 21:56:00,61.2,56.0,29.45,South,175,3.0,7.0,83,0.00,BKN,OVC,1.82,WeatherDisplay:10.37,2013-04-19 01:56:00,
2013-04-18 22:01:00,61.2,56.0,29.45,South,178,5.0,8.0,83,0.00,BKN,OVC,1.82,WeatherDisplay:10.37,2013-04-19 02:01:00,
2013-04-18 22:06:00,61.3,56.1,29.44,SSE,167,5.0,12.0,83,0.00,BKN,OVC,1.82,WeatherDisplay:10.37,2013-04-19 02:06:00,
2013-04-18 22:11:00,61.3,56.1,29.44,SSE,160,5.0,10.0,83,0.00,BKN,OVC,1.82,WeatherDisplay:10.37,2013-04-19 02:11:00,
2013-04-18 22:16:00,61.4,56.2,29.43,SSE,163,3.0,9.0,83,0.00,BKN,OVC,1.82,WeatherDisplay:10.37,2013-04-19 02:16:00,
2013-04-18 22:21:00,61.3,56.1,29.43,SSE,159,6.0,10.0,83,0.00,BKN,OVC,1.82,WeatherDisplay:10.37,2013-04-19 02:21:00,
2013-04-18 22:26:00,61.3,56.1,29.43,SSE,164,6.0,12.0,83,0.00,BKN,OVC,1.82,WeatherDisplay:10.37,2013-04-19 02:26:00,
2013-04-18 22:31:00,61.4,56.2,29.44,SSE,164,3.0,10.0,83,0.00,BKN,OVC,1.82,WeatherDisplay:10.37,2013-04-19 02:31:00,
2013-04-18 22:36:00,61.4,56.2,29.43,SSE,165,7.0,12.0,83,0.00,BKN,OVC,1.82,WeatherDisplay:10.37,2013-04-19 02:36:00,
2013-04-18 22:41:00,61.4,56.2,29.43,SSE,167,6.0,16.0,83,0.00,BKN,OVC,1.82,WeatherDisplay:10.37,2013-04-19 02:41:00,
2013-04-18 22:46:00,61.4,56.2,29.43,SSE,166,3.0,9.0,83,0.00,BKN,OVC,1.82,WeatherDisplay:10.37,2013-04-19 02:46:00,
2013-04-18 22:51:00,61.3,56.1,29.43,SSE,167,5.0,12.0,83,0.00,BKN,OVC,1.82,WeatherDisplay:10.37,2013-04-19 02:51:00,
2013-04-18 22:56:00,61.3,56.4,29.43,South,169,8.0,15.0,84,0.00,BKN,OVC,1.82,WeatherDisplay:10.37,2013-04-19 02:56:00,
2013-04-18 23:01:00,61.1,56.6,29.42,SSE,166,2.0,10.0,85,0.00,OVC,OVC,1.82,WeatherDisplay:10.37,2013-04-19 03:01:00,
2013-04-18 23:06:00,60.8,56.3,29.42,SSE,159,5.0,13.0,85,0.00,OVC,OVC,1.82,WeatherDisplay:10.37,2013-04-19 03:06:00,
2013-04-18 23:11:00,60.5,56.3,29.41,SSE,168,5.0,8.0,86,0.00,OVC,OVC,1.82,WeatherDisplay:10.37,2013-04-19 03:11:00,
2013-04-18 23:16:00,60.2,56.4,29.40,SSE,158,5.0,10.0,87,0.00,OVC,OVC,1.82,WeatherDisplay:10.37,2013-04-19 03:16:00,
2013-04-18 23:21:00,60.1,56.2,29.40,SSE,162,5.0,10.0,87,0.00,OVC,OVC,1.82,WeatherDisplay:10.37,2013-04-19 03:21:00,
2013-04-18 23:26:00,60.1,56.2,29.39,SSE,160,3.0,8.0,87,0.00,OVC,OVC,1.82,WeatherDisplay:10.37,2013-04-19 03:26:00,
2013-04-18 23:31:00,60.0,56.4,29.38,SSE,154,5.0,14.0,88,0.00,OVC,OVC,1.82,WeatherDisplay:10.37,2013-04-19 03:31:00,
2013-04-18 23:36:00,60.0,56.4,29.39,SSE,160,3.0,9.0,88,0.00,OVC,OVC,1.82,WeatherDisplay:10.37,2013-04-19 03:36:00,
2013-04-18 23:41:00,59.8,56.3,29.38,South,171,2.0,6.0,88,0.01,RA,OVC,1.83,WeatherDisplay:10.37,2013-04-19 03:41:00,
2013-04-18 23:46:00,59.7,56.5,29.38,South,178,3.0,8.0,89,0.00,OVC,OVC,1.83,WeatherDisplay:10.37,2013-04-19 03:46:00,
2013-04-18 23:51:00,59.6,56.4,29.38,South,189,5.0,8.0,89,0.01,OVC,OVC,1.84,WeatherDisplay:10.37,2013-04-19 03:51:00,
2013-04-18 23:56:00,59.5,56.6,29.39,SSW,201,5.0,8.0,90,0.00,OVC,OVC,1.84,WeatherDisplay:10.37,2013-04-19 03:56:00,